FENGYUN 1C DEB

Satellite information

Favourite Embed

Satellite Type and Status

DEBRISIN ORBIT

Key statistics

Satellite FENGYUN 1C DEB at a glance.

Uptime

9714

Days in orbit

Revolutions

≈ 14.2

Per day

Orbit

SSO

Sun Synchronous Orbit

Inclination

98.7

Latest

Satellite identification and parameters

Extended collection of information and parameters for FENGYUN 1C DEB.

Object identification

Identified? True

Debris? True

Object name: FENGYUN 1C DEB

International designator: 1999-025BYH

Object number (NORAD): 31542

Object ID (CCSDS): 31542

Country: PEOPLES REPUBLIC OF CHINA (PRC)

Current information (Y/N): Y

RCS size: SMALL

Orbital parameters

Period: 101.212 minutes

Inclination: 98.7313 deg

SMA: 7194.168 km

Apoapsis: 850.053 km

Periapsis: 782.013 km

RAAN: 36.6499 deg

Eccentricy: 0.00472884

Argument of periapsis: 218.708 deg

Mean anomaly: 141.0706 deg

Mean motion: 14.22760731 rev/day

Mean motion (dot): 0.00004714 rev/day2

B* drag term: 0.0020971405 1/REarth

Two-line elements (TLE)

Creation date: Dec. 9, 2025, 5:08 a.m.

Reference frame: TEME

Reference center: EARTH

Epoch: Dec. 8, 2025, 2:34 p.m. UTC

TLE line 0: 0 FENGYUN 1C DEB

TLE line 1: 1 31542U 99025BYH 25342.60761507 .00004714 00000-0 20971-2 0 9995

TLE line 2: 2 31542 98.7313 36.6499 0047288 218.7080 141.0706 14.22760731958813

Live tracking on map

Real-time ground track for satellite FENGYUN 1C DEB.

In-orbit conjunctions

A list of the most updated potential collisions computed for object FENGYUN 1C DEB.

Target Orbit TCA Probability of collision Miss distance Type
FENGYUN 1C DEB SSO 2025-08-24 08:48:34 0.0001089026 161.0 (m) DEBRIS
DMSP 5D-2 F13 DEB SSO 2025-05-15 01:30:30 0.0001087551 236.0 (m) DEBRIS
PEGASUS DEB LEO 2025-03-24 10:44:24 0.0001028827 229.0 (m) DEBRIS
FENGYUN 1C DEB SSO 2024-11-11 18:35:20 0.000182923 717.0 (m) DEBRIS
SL-3 DEB LEO 2024-08-27 02:56:50 0.0001333637 160.0 (m) DEBRIS

Associated space launch

Chinese polar orbiting meteorological satellite

FENGYUN 1C DEB was lifted into orbit during the mission ‘Long March 4B | Feng Yun 1C’, on board a Long March 4B space rocket.

The launch took place on May 10, 1999, 1:33 a.m. from Launch Complex 7.

For more information about the launch, click the button.

Launch to space Long March 4B | Feng Yun 1C
Long March 4B | Feng Yun 1C

Agency: N/A

Status: Launch Successful

Launch date: May 10, 1999, 1:33 a.m. UTC

Rocket: Long March 4B

Launch pad: Launch Complex 7

Location: Taiyuan Satellite Launch Center, People's Republic of China

...

Latest news about this satellite

There are no fresh news available about this satellite. Check back as we update our databases every day.


Newsletter sign-up

Weekly statistics, charts and insights to help you stay on top of the space industry.